{"data":{"norad_id":56475,"epoch":"2026-05-24T19:53:27.804192Z","epoch_age_seconds":86339,"freshness":"FRESH","line1":"1 56475U 23064AD  26144.82879403  .00001177  00000+0  10644-3 0  9993","line2":"2 56475  69.9987 292.4998 0002973 268.1828  91.8990 14.98338773167144","mean_motion":14.98338773,"eccentricity":0.0002973,"inclination_deg":69.9987,"raan_deg":292.4998,"arg_perigee_deg":268.1828,"mean_anomaly_deg":91.899,"bstar":0.00010644,"rev_number":16714,"period_min":96.106436404686,"perigee_km":569.96247701714,"apogee_km":574.09504557881,"semimajor_km":6950.165761298,"source":"CELESTRAK","updated_at":"2026-05-25T13:38:18.071921Z"}}